Погода в Балхаше

Хотите узнать прогноз погоды в Балхаше? Тогда Вам сюда: Погода в Балхаше

Поиск расширенной информации на нашем сайте:

Полезная информация:

Новости сайта



02.01.2020
Опубликован Долгосрочный прогноз погоды по городам России и ближнего зарубежья на январь 2020 года.
Карты: Прогноз на январь и февраль 2020 года, Сравнение прогнозируемой аномалии приземной температуры воздуха на январь 2020 года по разным моделям.




Погода в Балхаше - сегодня

Время (UTC), дата Ветер
(°,м/с) 
Видим.   Явления Облачность Т
(°С)
Тd
(°С)
f(%) Тe
(°С)
Pmin
(гПа)
dP
(гПа)
Po
(мм)
O2
(г/м3)
Тmin Tmax R s Состояние
почвы
12 22.10.21 280 (З) 10 км    9/9 1000 м 
[Sc]
+5.8 -5.1 45 +5  1033  1.4  742  293           
15 22.10.21 270 (З) 10 км    8/8 1000 м 
[Sc]
+5.8 -5.1 45 +4  1034.5  1.5  744  294    +6.3       
18 22.10.21 250 (З) 10 км    5/0 верхняя 
[Cs]
+5 -4.4 51 +3  1035.4  0.7  744  295    +6.3       
21 22.10.21 250 (З) 10 км    10/0 средняя 
[Ac As]
+5.4 -2.7 56 +3  1035.5  0.2  744  294           
00 23.10.21 240 (ЮЗ) 10 км    10/0 средняя 
[Ac As]
+5.7 -1.9 58 +4  1035.7  0.2  744  294           
03 23.10.21 260 (З) 20000 м    10/0 средняя 
[Ac und]
+5.5 -3.6 52 +4  1036.7  0.9  745  295           
06 23.10.21 220 (ЮЗ) 20000 м    10/6 1000 м средняя 
[Sc|Ac und]
+6.8 -2.8 50 +5  1036.2  -0.2  745  293  +4.4         
09 23.10.21 210 (ЮЗ) 20000 м    10/10 1000 м 
[Sc]
+7.2 -1.5 54 +5  1035  -1.1  744  292           
12 23.10.21 210 (ЮЗ) 20000 м    9/9 1000 м средняя 
[Sc|Ac und]
+6.6 -0.4 61 +5  1034.8  -0.3  744  293           
15 23.10.21 230 (ЮЗ) 10 км    6/6 1000 м 
[Sc]
+6 +1.8 74 +6  1035.8  0.9  745  293    +8.2       
18 23.10.21 060 (СВ) 10 км    8/6 1000 м средняя 
[Sc|Ac und]
+1.8 -0.7 83 +1  1036.1  -0.3  744  298    +8.2       
21 23.10.21 040 (СВ) 10 км    3/0 средняя 
[Ac trans]
+0.8 -1.2 86 +1  1035.8  -0.5  744  299           
00 24.10.21 040 (СВ) 10 км    ясно 
-1 -1.9 94 -3  1035.5  -0.6  743  301           
03 24.10.21 050 (СВ) 20000 м    ясно 
-0.8 -1.7 94 -3  1035.6  0.1  744  301           
06 24.10.21 180 (Ю) 20000 м    ясно 
+9.2 +1.5 59 +9  1032.7  -1.2  743  289  -1.1         
09 24.10.21 200 (Ю) 20000 м    ясно 
+9.6 +1.2 56 +10  1030.1  -2.4  741  288           
12 24.10.21 110 (В) 20000 м    ясно 
+10.1 -2.8 40 +10  1028.9  -1.1  740  288           
15 24.10.21 050 (СВ) 10 км    ясно <0100 м 
+4.6 -2.4 60 +3  1028.7  -13  739  293    +13      мокрая 
18 24.10.21 050 (СВ) 10 км    ясно 
+2.8 +0.4 84 +1  1027  -1.9  738  294    +12.6       
21 24.10.21 040 (СВ) 10 км    ясно 
+0.3 -1.7 86 -2  1025.6  -1.8  737  297           
00 25.10.21 040 (СВ) 10 км    ясно 
+1.4 -0.5 87 -1  1023.9  -1.4  735  295           
03 25.10.21 030 (СВ) 20000 м    ясно 
+2.2 -1.4 77 -1  1023.4  -0.4  735  294  +0         
06 25.10.21 040 (СВ) 20000 м    ясно 
+10.2 -2.6 41 +9  1021.4  -0.7  735  286  +0         
09 25.10.21 070 (В) 20000 м    1/0 верхняя 
[Ci fib]
+15.5 -5.4 23 +16  1018.2  -2.4  733  280           
12 25.10.21 060 (СВ) 20000 м    1/0 верхняя 
[Ci fib]
+14.7 -3.1 29 +15  1017.7  -0.5  732  280           
Время (UTC), дата Ветер
(°,м/с) 
Видим.   Явления Облачность Т
(°С)
Тd
(°С)
f(%) Тe
(°С)
Pmin
(гПа)
dP
(гПа)
Po
(мм)
O2
(г/м3)
Тmin Tmax R s Состояние
почвы

Для получения пояснительной информации подведите курсор к названию столбца.

ПОГОДА в Балхаше - архив

Всё, что Вы хотите узнать о погоде в Балхаше - удобно и подробно!

Выберите нужную дату (начиная с 1 января 2019* года) и нажмите кнопку "Найти".
Будут отображены архивные сводки погоды по пункту Балхаш, начиная с указанной даты.


Отображать данные в формате CSV (для использования в таблицах Excel)


Внимание! Наш архив погоды предназначен исключительно для личного некоммерческого использования в познавательных целях. Если Вам необходимы официальные справки о состоянии погоды (для производственных, юридических, коммерческих и т.п. целей), обращайтесь в органы Росгидромета.

*Примечание: данная дата относится к архиву по метеостанциям СССР (Россия, СНГ, Балтия).
Архив по метеостанциям Зарубежной Европы и Азии (кроме Китая) хранится 10 дней, по другим регионам земного шара (Китай, Африка, Америка, Австралия, Океания) - 1 день.

Балхаш - район местоположения метеостанции


Название, широта, долгота, высота метеостанции:
Балхаш 46.8°ш. 75.1°д. 350 м над ур. моря [Казахстан]

Дополнительная информация

В oтличие oт бoльшинства пoгoдных сайтoв мы публикуем пoдрoбную метеoинфoрмацию в детальнoм прoфессиoнальнoм фoрмате.

Характеристики температуры и влажнoсти вoздуха измеряются на высoте 2 м в тени вдали oт зданий и деревьев.
Скoрoсть ветра измеряется на высoте 10 м (на урoвне рoста челoвека скoрoсть ветра ниже в 1.5-2 раза). Если метеoстанция нахoдится в гoрoде или в лесу, тo скoрoсть ветра занижена на 2-4 м/с пo сравнению с oткрытым местoм. Скoрoсть ветра над акватoриями крупных рек и oзёр, а также на вершинах хoлмoв на 2-5 м/с выше, чем в oбычных услoвиях.
Атмoсфернoе давление в разных тoчках местнoсти мoжет значительнo oтличаться oт давления на метеoстанции, в зависимoсти oт услoвий рельефа (при пoдъёме на 10 м давление пoнижается примернo на 1 мм рт.ст.).